When you browse on this site, cookies collect data to enhance your experience and personalize the content and advertising you see.
Visit our Privacy Policy to learn more. By continuing to use the site, you agree to this use of cookies and data.
  • în România
  • Lista ţărilor
  • Pe 7 zile
  • Temperatura apei
  • Hartă satelitară
  • Meteo pe hartă
  • Widget-uri
  • user-avatar
    Intrare

    Meteo pe oră la Kingston upon Thames

    Astăzi, 26 Iunie, Miercuri

    Timp Temperatura Precipitaţii Vânt Presiune Umiditate
    00:00 +18°C° 0 mm 3 m/s 766 mmHg 88%
    01:00 +17°C° 0 mm 3 m/s 766 mmHg 89%
    02:00 +17°C° 0 mm 3 m/s 766 mmHg 89%
    03:00 +16°C° 0 mm 3 m/s 766 mmHg 89%
    04:00 +17°C° 0 mm 4 m/s 766 mmHg 89%
    05:00 +17°C° 0 mm 4 m/s 767 mmHg 88%
    06:00 +17°C° 0 mm 4 m/s 767 mmHg 88%
    07:00 +18°C° 0 mm 4 m/s 767 mmHg 86%
    08:00 +19°C° 0 mm 4 m/s 768 mmHg 83%
    09:00 +19°C° 0 mm 4 m/s 768 mmHg 81%
    10:00 +20°C° 0 mm 5 m/s 768 mmHg 80%
    11:00 +21°C° 0 mm 5 m/s 769 mmHg 78%
    12:00 +21°C° 0 mm 5 m/s 769 mmHg 77%
    13:00 +21°C° 0 mm 6 m/s 769 mmHg 76%
    14:00 +21°C° 0 mm 6 m/s 769 mmHg 76%
    15:00 +21°C° 0 mm 6 m/s 768 mmHg 75%
    16:00 +21°C° 0 mm 6 m/s 768 mmHg 76%
    17:00 +20°C° 0 mm 6 m/s 768 mmHg 77%
    18:00 +20°C° 0 mm 6 m/s 768 mmHg 78%
    19:00 +19°C° 0 mm 6 m/s 769 mmHg 79%
    20:00 +16°C° 0 mm 6 m/s 769 mmHg 80%
    21:00 +15°C° 0 mm 6 m/s 769 mmHg 81%
    22:00 +15°C° 0 mm 5 m/s 770 mmHg 81%
    23:00 +14°C° 0 mm 5 m/s 770 mmHg 82%

    Mâine, 27 Iunie, Joi

    Timp Temperatura Precipitaţii Vânt Presiune Umiditate
    00:00 +13°C° 0 mm 5 m/s 770 mmHg 83%
    01:00 +13°C° 0 mm 5 m/s 770 mmHg 83%
    02:00 +13°C° 0 mm 5 m/s 770 mmHg 82%
    03:00 +13°C° 0 mm 5 m/s 770 mmHg 82%
    04:00 +13°C° 0 mm 5 m/s 770 mmHg 80%
    05:00 +13°C° 0 mm 5 m/s 770 mmHg 78%
    06:00 +14°C° 0 mm 6 m/s 770 mmHg 76%
    07:00 +15°C° 0 mm 6 m/s 770 mmHg 70%
    08:00 +17°C° 0 mm 6 m/s 770 mmHg 64%
    09:00 +19°C° 0 mm 6 m/s 770 mmHg 58%
    10:00 +20°C° 0 mm 6 m/s 770 mmHg 57%
    11:00 +21°C° 0 mm 6 m/s 770 mmHg 56%
    12:00 +22°C° 0 mm 7 m/s 770 mmHg 56%
    13:00 +22°C° 0 mm 7 m/s 770 mmHg 55%
    14:00 +22°C° 0 mm 6 m/s 770 mmHg 55%
    15:00 +23°C° 0 mm 6 m/s 769 mmHg 55%
    16:00 +22°C° 0 mm 6 m/s 769 mmHg 58%
    17:00 +21°C° 0 mm 6 m/s 769 mmHg 61%
    18:00 +21°C° 0 mm 6 m/s 768 mmHg 64%
    19:00 +19°C° 0 mm 5 m/s 769 mmHg 67%
    20:00 +17°C° 0 mm 5 m/s 769 mmHg 70%
    21:00 +16°C° 0 mm 5 m/s 769 mmHg 73%
    22:00 +15°C° 0 mm 5 m/s 769 mmHg 75%
    23:00 +14°C° 0 mm 5 m/s 768 mmHg 76%

    Poimâine, 28 Iunie, Vineri

    Timp Temperatura Precipitaţii Vânt Presiune Umiditate
    00:00 +14°C° 0 mm 5 m/s 768 mmHg 78%
    01:00 +13°C° 0 mm 5 m/s 768 mmHg 81%
    02:00 +13°C° 0 mm 4 m/s 768 mmHg 83%
    03:00 +13°C° 0 mm 4 m/s 768 mmHg 85%
    04:00 +13°C° 0 mm 4 m/s 768 mmHg 84%
    05:00 +14°C° 0 mm 5 m/s 767 mmHg 83%
    06:00 +15°C° 0 mm 5 m/s 767 mmHg 82%
    07:00 +16°C° 0 mm 5 m/s 767 mmHg 77%
    08:00 +17°C° 0 mm 5 m/s 767 mmHg 71%
    09:00 +20°C° 0 mm 5 m/s 767 mmHg 66%
    10:00 +21°C° 0 mm 6 m/s 767 mmHg 63%
    11:00 +22°C° 0 mm 6 m/s 766 mmHg 59%
    12:00 +23°C° 0 mm 6 m/s 766 mmHg 56%
    13:00 +23°C° 0 mm 6 m/s 766 mmHg 55%
    14:00 +23°C° 0 mm 6 m/s 765 mmHg 54%
    15:00 +23°C° 0 mm 6 m/s 765 mmHg 54%
    16:00 +22°C° 0 mm 6 m/s 765 mmHg 56%
    17:00 +21°C° 0 mm 5 m/s 764 mmHg 59%
    18:00 +21°C° 0 mm 5 m/s 764 mmHg 62%
    19:00 +19°C° 0 mm 5 m/s 764 mmHg 66%
    20:00 +17°C° 0 mm 5 m/s 764 mmHg 70%
    21:00 +17°C° 0 mm 4 m/s 764 mmHg 74%
    22:00 +17°C° 0 mm 4 m/s 763 mmHg 75%
    23:00 +17°C° 0 mm 4 m/s 763 mmHg 77%

    29 Iunie, Sâmbătă

    Timp Temperatura Precipitaţii Vânt Presiune Umiditate
    00:00 +17°C° 0 mm 3 m/s 763 mmHg 79%
    01:00 +16°C° 0 mm 3 m/s 762 mmHg 80%
    02:00 +16°C° 0 mm 3 m/s 762 mmHg 82%
    03:00 +16°C° 0 mm 3 m/s 762 mmHg 84%
    04:00 +17°C° 0 mm 3 m/s 761 mmHg 81%
    05:00 +17°C° 0 mm 3 m/s 761 mmHg 79%
    06:00 +18°C° 0 mm 3 m/s 761 mmHg 76%
    07:00 +20°C° 0 mm 3 m/s 761 mmHg 72%
    08:00 +22°C° 0 mm 3 m/s 761 mmHg 68%
    09:00 +23°C° 0 mm 4 m/s 760 mmHg 64%
    10:00 +26°C° 0 mm 4 m/s 760 mmHg 60%
    11:00 +27°C° 0 mm 4 m/s 759 mmHg 56%
    12:00 +28°C° 0 mm 4 m/s 759 mmHg 53%
    13:00 +28°C° 0 mm 4 m/s 759 mmHg 53%
    14:00 +28°C° 0 mm 4 m/s 758 mmHg 53%
    15:00 +28°C° 0 mm 4 m/s 758 mmHg 54%
    16:00 +28°C° 0 mm 4 m/s 758 mmHg 59%
    17:00 +27°C° 0 mm 4 m/s 757 mmHg 63%
    18:00 +26°C° 0 mm 4 m/s 757 mmHg 68%
    19:00 +25°C° 0 mm 4 m/s 758 mmHg 73%
    20:00 +22°C° 0 mm 4 m/s 758 mmHg 78%
    21:00 +21°C° 0 mm 4 m/s 758 mmHg 83%
    22:00 +20°C° 0 mm 4 m/s 758 mmHg 79%
    23:00 +18°C° 0 mm 4 m/s 758 mmHg 75%

    30 Iunie, Duminică

    Timp Temperatura Precipitaţii Vânt Presiune Umiditate
    00:00 +17°C° 0 mm 4 m/s 759 mmHg 71%
    01:00 +15°C° 0 mm 4 m/s 759 mmHg 76%
    02:00 +14°C° 0 mm 3 m/s 759 mmHg 80%
    03:00 +13°C° 0 mm 3 m/s 759 mmHg 85%
    04:00 +14°C° 0 mm 3 m/s 759 mmHg 85%
    05:00 +15°C° 0 mm 4 m/s 760 mmHg 85%
    06:00 +15°C° 0 mm 4 m/s 760 mmHg 85%
    07:00 +17°C° 0 mm 4 m/s 760 mmHg 81%
    08:00 +18°C° 0 mm 4 m/s 761 mmHg 78%
    09:00 +18°C° 0 mm 4 m/s 761 mmHg 74%
    10:00 +19°C° 0 mm 4 m/s 761 mmHg 73%
    11:00 +20°C° 0 mm 4 m/s 761 mmHg 71%
    12:00 +20°C° 0 mm 5 m/s 761 mmHg 69%
    13:00 +21°C° 0 mm 5 m/s 761 mmHg 68%
    14:00 +21°C° 0 mm 4 m/s 761 mmHg 67%
    15:00 +22°C° 0 mm 4 m/s 761 mmHg 65%
    16:00 +22°C° 0 mm 4 m/s 761 mmHg 67%
    17:00 +22°C° 0 mm 4 m/s 761 mmHg 68%
    18:00 +21°C° 0 mm 4 m/s 761 mmHg 69%
    19:00 +20°C° 0 mm 4 m/s 761 mmHg 73%
    20:00 +19°C° 0 mm 3 m/s 761 mmHg 77%
    21:00 +17°C° 0 mm 3 m/s 761 mmHg 81%
    22:00 +16°C° 0 mm 3 m/s 761 mmHg 83%
    23:00 +16°C° 0 mm 3 m/s 761 mmHg 84%

    1 Iulie, Luni

    Timp Temperatura Precipitaţii Vânt Presiune Umiditate
    00:00 +14°C° 0 mm 3 m/s 761 mmHg 86%
    01:00 +13°C° 0 mm 3 m/s 761 mmHg 87%
    02:00 +13°C° 0 mm 3 m/s 761 mmHg 89%
    03:00 +12°C° 0 mm 3 m/s 762 mmHg 90%
    04:00 +13°C° 0 mm 3 m/s 762 mmHg 87%
    05:00 +13°C° 0 mm 3 m/s 762 mmHg 83%
    06:00 +14°C° 0 mm 4 m/s 762 mmHg 80%
    07:00 +15°C° 0 mm 4 m/s 762 mmHg 75%
    08:00 +17°C° 0 mm 4 m/s 762 mmHg 70%
    09:00 +18°C° 0 mm 4 m/s 763 mmHg 64%
    10:00 +18°C° 0 mm 4 m/s 763 mmHg 62%
    11:00 +19°C° 0 mm 4 m/s 763 mmHg 61%
    12:00 +20°C° 0 mm 5 m/s 763 mmHg 59%
    13:00 +20°C° 0 mm 5 m/s 763 mmHg 59%
    14:00 +20°C° 0 mm 5 m/s 763 mmHg 59%
    15:00 +20°C° 0 mm 5 m/s 763 mmHg 59%
    16:00 +19°C° 0 mm 5 m/s 763 mmHg 61%
    17:00 +19°C° 0 mm 4 m/s 764 mmHg 62%
    18:00 +19°C° 0 mm 4 m/s 764 mmHg 64%
    19:00 +17°C° 0 mm 4 m/s 764 mmHg 68%
    20:00 +15°C° 0 mm 4 m/s 764 mmHg 71%
    21:00 +14°C° 0 mm 3 m/s 765 mmHg 75%
    22:00 +14°C° 0 mm 3 m/s 765 mmHg 76%
    23:00 +13°C° 0 mm 3 m/s 765 mmHg 76%
    Arată mai mult